Location: Little Italy
(37.8008°N, 122.4108°W)
Time: 07:40:36
(UTC+00:00)

ALOS - Pass Details

Date: 29 October 2020
Orbit: 684 x 684 km, 97.9° (Epoch: 02 December)

Event Time Altitude Azimuth Distance (km) Brightness Sun altitude
Rises 12:20:31 0° 18° (NNE) 3,055 5.9 -26.6°
Reaches altitude 10° 12:22:50 10° 24° (NNE) 2,135 5.1 -26.1°
Maximum altitude 12:27:21 48° 99° (E) 892 3.2 -25.2°
Drops below altitude 10° 12:31:50 10° 174° (S) 2,120 4.8 -24.4°
Sets 12:34:08 0° 180° (S) 3,031 5.6 -23.9°
